Temperature
20 20 20 20 19 19 19 19 19 18 18 18 18 18 18 18 18 17 17 17 17 17 17 17 17 17 16 16 16 16 16 16 15 15 15 15 14 14 14 14 13 13 13
20 20 20 20 19 19 19 19 19 19 18 18 18 18 18 18 18 18 17 17 17 17 17 17 17 16 16 16 16 16 15 15 15 15 15 14 14 14 14 14 13 13 13
20 20 20 20 20 19 19 19 19 19 18 18 18 18 18 18 18 18 17 17 17 17 17 17 17 16 16 16 16 16 15 15 15 15 15 14 14 14 14 14 13 13 13
20 20 20 20 19 19 19 19 19 19 18 18 18 18 18 18 17 17 17 17 17 17 17 17 17 16 16 16 16 16 15 15 15 15 14 14 14 14 14 13 13 13 13
20 20 20 20 19 19 19 19 19 18 18 18 18 18 18 17 17 17 17 17 17 17 17 17 16 16 16 16 15 15 15 15 15 14 14 14 14 14 13 13 13 13 13
20 20 20 20 19 19 19 19 18 18 18 18 18 18 17 17 17 17 17 17 17 17 17 16 16 16 16 16 15 15 15 15 15 14 14 14 14 14 13 13 13 13 12
20 20 20 19 19 19 19 19 18 18 18 18 18 18 17 17 17 17 17 17 16 16 16 16 16 16 16 15 15 15 15 15 14 14 14 14 14 14 13 13 13 13 12
20 20 19 19 19 19 19 18 18 18 18 18 17 17 17 17 17 17 16 16 16 16 16 16 16 16 15 15 15 15 15 14 14 14 14 14 13 13 13 13 13 12 12
20 19 19 19 19 19 18 18 18 18 18 18 17 17 17 17 17 16 16 16 16 16 16 16 16 15 15 15 15 15 14 14 14 14 14 13 13 13 13 12 12 12 12
20 20 19 19 19 19 18 18 18 18 18 17 17 17 17 17 16 16 16 16 16 16 15 15 15 15 15 15 14 14 14 14 14 14 14 13 13 13 13 12 12 12 12
19 19 19 19 19 18 18 18 18 18 17 17 17 17 16 16 16 16 16 16 16 15 15 15 15 15 15 14 14 14 14 14 14 13 13 13 13 13 12 12 12 11 11
19 19 19 18 18 18 18 18 17 17 17 17 17 16 16 16 16 16 16 15 15 15 15 15 15 14 14 14 14 14 14 13 13 13 13 13 13 12 12 12 12 11 11
18 18 18 18 18 18 17 17 17 17 17 17 16 16 16 16 16 15 15 15 15 15 14 14 14 14 14 14 14 13 13 13 13 13 13 13 12 12 12 12 12 11 11
18 18 18 18 18 17 17 17 16 16 16 16 16 16 16 15 15 15 15 14 14 14 14 14 14 14 13 13 13 13 13 13 13 12 12 12 12 12 12 11 11 11 11
18 18 17 17 17 17 17 16 16 16 16 16 16 15 15 15 15 15 14 14 14 14 13 13 13 13 13 13 13 13 13 13 12 12 12 12 12 12 11 11 11 11 11
17 17 17 17 16 16 16 16 15 15 15 15 15 15 15 15 14 14 14 14 14 13 13 13 13 13 13 13 13 13 13 12 12 12 12 11 11 11 11 11 11 10 10
17 17 16 16 16 15 15 15 15 15 15 15 14 14 14 14 14 14 14 14 13 13 13 13 13 12 12 12 12 12 12 12 12 12 11 11 11 11 10 10 10 10 10
16 16 16 16 15 15 15 15 15 14 14 14 14 14 14 14 14 13 13 13 13 13 13 13 13 12 12 12 12 12 12 12 12 11 11 11 11 10 10 10 10 10 9
16 15 15 15 15 15 15 14 14 14 14 14 14 14 14 14 14 13 13 13 13 13 13 13 12 12 12 12 12 12 12 11 11 11 11 11 10 10 10 9 9 9 9
15 15 15 15 14 14 14 14 14 14 14 14 14 14 14 13 13 13 13 13 13 13 12 12 12 12 12 11 11 11 11 11 11 11 10 10 10 10 10 9 9 9 9
15 14 14 14 14 14 14 14 14 14 14 13 13 13 13 13 13 13 13 13 12 12 12 12 12 12 11 11 11 11 11 11 11 11 10 10 10 9 9 9 9 9 9
14 14 14 14 14 14 14 14 13 13 13 13 13 13 13 13 13 12 12 12 12 12 12 12 11 11 11 11 11 11 11 10 10 10 10 10 9 9 9 9 8 8 8
14 14 14 14 14 14 13 13 13 13 13 13 13 13 13 13 13 12 12 12 12 12 11 11 11 11 11 11 11 10 10 10 10 10 9 9 9 9 9 9 8 8 8
14 14 13 13 13 13 13 13 13 13 13 13 13 12 12 12 12 12 12 12 12 11 11 11 11 11 11 11 10 10 10 10 10 9 9 9 9 9 9 8 8 8 8
13 13 13 13 13 13 13 13 13 13 12 12 12 12 12 12 12 12 12 11 11 11 11 11 11 11 10 10 10 10 10 10 9 9 9 8 8 8 8 8 8 8 8
13 13 13 13 13 13 12 12 12 12 12 12 12 12 12 11 11 11 11 11 11 11 11 10 10 10 10 10 9 9 9 9 9 9 8 8 8 8 8 8 7 7 7
Wind_Speed
7 6 5 5 4 4 4 4 3 3 3 3 3 2 2 2 2 2 2 2 2 1 1 2 1 1 2 2 2 3 2 2 2 1 0 0 1 1 1 1 1 1 1
7 6 5 5 5 4 4 4 3 3 3 3 2 2 2 2 2 3 2 2 2 2 1 2 1 1 2 2 2 3 2 2 2 1 0 1 1 1 1 1 1 1 1
7 7 6 5 6 5 5 4 4 3 3 3 3 3 2 2 2 2 3 2 2 2 2 2 2 3 2 2 2 2 2 2 1 2 1 1 0 1 1 0 1 1 1
7 7 6 6 6 5 4 4 4 4 4 4 3 3 2 2 2 3 3 3 2 2 2 2 2 3 3 3 3 3 3 3 2 2 1 1 1 0 1 1 1 1 2
7 7 6 5 5 4 4 4 4 4 4 4 3 2 2 2 2 3 3 3 2 2 2 2 2 3 4 4 3 4 4 3 3 2 1 1 1 1 2 2 2 1 2
8 7 6 5 5 5 4 4 4 3 3 3 3 3 2 2 3 5 4 3 3 2 2 1 1 2 3 4 5 5 6 5 4 3 3 3 3 3 3 3 2 1 2
7 6 6 5 5 4 4 4 4 3 2 2 3 3 3 2 3 4 5 3 3 2 2 2 1 1 2 2 3 4 5 5 6 5 4 5 4 5 4 4 4 4 4
7 7 6 6 5 4 4 4 3 2 2 2 3 3 3 2 3 4 4 3 2 2 3 3 2 1 2 2 2 2 3 4 5 5 5 6 5 5 5 5 5 4 2
7 7 7 7 6 6 5 5 4 3 3 3 2 2 2 2 3 4 4 2 2 2 2 2 2 2 3 3 3 2 2 3 3 5 6 6 6 6 5 3 2 2 3
7 7 6 7 7 7 6 5 4 3 3 3 2 2 2 2 3 4 5 3 2 1 1 1 2 2 2 4 3 3 3 4 2 2 2 3 3 3 6 6 5 4 3
5 5 6 6 6 6 5 4 4 4 3 3 2 1 1 2 2 3 4 3 3 2 2 1 1 2 3 4 4 4 5 4 3 2 2 2 2 2 3 5 6 5 5
5 5 5 5 5 5 5 4 4 4 4 3 2 1 1 1 2 3 4 4 3 3 3 2 2 3 3 4 3 4 4 3 2 2 2 3 3 3 4 4 6 7 8
6 5 4 4 4 4 5 5 4 4 4 3 3 3 2 2 2 3 4 4 5 3 2 3 2 3 3 2 3 3 3 2 2 2 3 4 4 4 3 3 4 4 5
6 5 4 4 4 3 3 3 4 3 4 3 3 3 3 2 2 2 2 2 3 2 2 1 1 1 1 2 1 1 2 3 3 3 4 3 2 2 3 2 3 3 3
6 5 4 4 4 3 3 2 3 4 5 5 4 4 3 4 5 5 4 3 3 3 1 0 0 0 1 2 2 2 2 2 3 3 3 3 3 3 3 3 2 2 3
5 4 4 3 3 3 3 1 1 1 2 4 5 4 4 5 4 5 5 5 4 4 3 1 2 2 3 3 3 3 3 3 4 3 4 4 4 4 4 3 3 3 4
6 5 4 4 3 3 3 3 2 1 2 1 2 4 4 3 2 3 4 3 3 5 2 3 3 4 4 4 4 4 4 4 4 4 4 4 4 4 4 4 4 4 4
5 5 5 4 4 4 4 3 3 2 1 1 1 1 2 2 1 2 2 3 1 2 3 3 4 4 4 4 4 4 4 4 3 3 4 4 4 4 4 5 5 5 5
4 4 4 4 4 4 3 3 3 3 2 1 0 1 1 1 1 1 4 2 2 3 3 4 4 4 4 4 4 4 4 4 3 3 4 4 4 4 4 5 5 6 6
3 5 5 4 4 4 3 3 3 3 3 2 2 2 1 1 1 0 1 2 3 3 3 4 3 4 4 4 4 4 4 4 4 4 4 4 4 4 5 5 5 5 5
4 4 5 4 3 4 3 4 3 3 3 3 2 3 4 2 2 2 2 3 3 4 4 4 4 4 4 3 4 4 5 4 4 4 4 4 4 4 4 4 4 5 5
4 4 4 3 3 3 3 3 3 3 3 3 2 2 4 3 2 3 3 3 3 4 4 3 4 4 4 4 4 4 5 5 5 4 4 4 4 4 4 4 4 4 4
4 4 3 3 3 3 3 3 3 3 3 2 2 2 2 3 3 3 4 3 3 4 4 3 4 3 4 4 5 5 5 5 5 5 5 5 5 5 4 5 5 5 5
4 4 4 4 3 3 3 3 3 3 3 3 3 3 3 3 3 4 4 3 3 3 3 4 4 5 6 5 5 5 6 7 6 6 6 6 5 5 4 5 5 6 5
4 4 4 4 3 3 3 3 3 3 3 3 3 3 3 3 3 4 3 3 4 4 4 4 4 5 6 7 6 6 7 7 7 6 6 5 5 5 4 5 4 4 4
4 4 3 3 3 3 3 3 3 3 3 3 3 4 3 3 3 3 3 3 3 4 4 4 5 6 6 6 7 7 6 6 6 6 6 5 5 4 4 4 5 4 5
Wind_Direction
182 183 184 186 184 178 179 190 186 184 187 195 184 182 184 171 154 142 142 139 145 152 152 150 165 160 160 170 167 169 166 161 177 234 186 146 151 163 92 89 91 97 86
180 175 183 175 169 178 189 195 183 185 190 196 185 176 186 187 163 156 159 150 151 158 158 144 157 143 145 164 162 163 166 166 166 195 186 173 192 196 182 178 130 164 183
169 172 180 179 177 185 192 186 177 182 187 183 176 183 196 190 172 171 164 155 155 162 160 161 169 145 143 145 143 147 161 154 144 159 186 194 202 164 152 205 215 262 249
168 174 186 192 189 188 184 181 180 180 182 184 179 187 199 196 186 175 160 157 154 156 159 166 174 173 177 170 164 166 159 145 133 139 153 187 212 183 172 219 276 277 267
165 178 194 192 177 173 177 184 187 188 191 186 177 182 193 194 198 181 174 171 170 167 158 171 189 187 181 182 181 177 167 165 160 166 184 191 210 186 214 211 229 270 269
168 181 183 175 171 176 179 180 181 187 186 176 177 179 183 205 188 177 170 169 174 180 187 207 213 203 197 193 189 183 177 178 188 191 207 218 232 225 212 202 205 225 264
172 175 173 172 175 182 176 166 177 185 180 179 188 179 187 201 185 177 174 169 178 191 197 210 232 239 201 198 186 185 197 198 191 192 205 224 225 217 202 209 216 223 238
173 178 177 175 177 173 166 174 180 174 175 187 192 187 185 206 185 177 173 172 188 214 211 207 213 241 221 194 181 192 218 225 219 212 223 232 230 217 206 210 220 232 255
180 185 184 179 177 175 181 188 183 173 183 190 182 183 193 222 194 183 166 164 187 226 224 206 204 222 230 193 177 202 243 262 242 231 236 242 237 221 198 181 189 211 254
190 187 179 176 177 181 187 186 177 175 189 184 179 182 195 224 212 189 172 171 189 227 253 237 216 222 218 186 190 204 239 260 261 268 265 265 249 223 200 201 203 215 242
180 166 165 170 175 176 175 173 168 172 170 169 172 189 204 224 218 200 183 181 199 215 234 251 253 239 236 220 211 221 235 243 249 247 258 269 269 252 233 224 217 216 229
154 156 162 164 170 168 164 167 165 165 165 170 173 223 248 237 216 213 202 204 200 206 236 246 247 231 230 231 228 245 242 227 237 243 255 263 263 263 258 247 237 232 234
143 149 151 147 153 157 163 167 160 164 174 185 191 215 247 251 238 218 211 216 210 210 237 241 246 234 223 229 247 244 214 210 222 241 253 261 261 264 266 264 256 249 251
144 146 145 146 150 150 153 159 165 178 188 192 202 220 236 249 250 233 223 224 223 226 251 261 239 202 208 241 257 226 213 214 220 242 253 267 276 272 266 261 259 259 266
142 140 142 148 152 152 156 172 183 202 201 194 208 209 214 241 248 225 209 218 219 218 191 152 358 298 285 280 272 261 239 226 227 240 249 261 267 266 270 264 254 258 260
146 149 152 150 151 153 150 108 54 194 207 204 207 207 227 231 230 216 213 215 205 174 157 226 250 249 252 256 259 263 256 246 243 241 245 248 253 258 268 270 259 253 260
156 158 157 155 154 158 162 169 179 13 46 135 218 219 216 217 209 204 200 194 179 157 185 235 244 250 256 258 257 255 256 256 247 243 248 253 255 257 261 265 262 259 262
155 157 158 164 171 176 180 183 181 180 202 317 324 231 206 200 202 199 159 130 133 188 233 247 254 256 256 257 258 258 260 258 250 248 250 252 251 251 256 262 260 260 264
157 159 163 169 172 175 175 173 179 184 192 210 328 3 25 88 95 119 143 168 219 240 244 252 259 262 262 260 259 259 259 256 255 252 253 253 251 250 257 261 262 259 260
172 170 167 169 170 168 168 175 188 192 193 200 218 230 168 113 115 133 203 231 241 249 248 251 254 257 257 258 258 256 258 257 255 253 258 256 254 252 257 263 264 262 260
171 174 168 166 176 179 179 188 195 199 203 211 227 221 182 193 217 219 222 239 247 252 254 255 255 256 259 260 256 253 252 252 247 246 249 252 252 255 261 265 271 269 268
171 173 173 174 178 184 188 193 196 200 207 213 228 219 189 200 219 232 238 245 251 256 255 252 258 258 254 254 250 248 250 254 253 249 248 249 249 251 256 262 265 269 273
167 168 175 185 188 186 188 191 195 200 206 212 218 225 222 234 239 242 246 252 255 259 260 254 255 266 272 269 260 250 250 254 252 246 244 248 249 251 255 258 263 268 271
171 178 186 193 195 195 195 202 204 206 209 219 225 230 233 234 242 252 258 260 260 266 268 262 258 262 270 276 274 264 258 258 254 247 242 242 247 251 253 257 260 264 265
170 180 188 193 197 202 203 205 208 212 217 224 229 234 240 239 244 251 257 261 263 267 272 274 273 273 274 276 282 281 277 266 255 251 245 242 245 249 253 257 262 269 272
169 179 188 194 197 201 206 210 214 216 223 229 232 233 237 241 247 256 263 264 267 273 280 284 287 285 284 285 289 294 290 280 269 259 243 240 244 250 253 256 263 266 270
Height
1523 1526 1528 1529 1531 1532 1533 1534 1535 1536 1537 1538 1539 1539 1539 1540 1540 1540 1540 1540 1540 1540 1540 1540 1540 1540 1540 1540 1540 1541 1541 1542 1541 1541 1542 1542 1542 1542 1542 1542 1542 1542 1541
1522 1524 1526 1527 1529 1530 1531 1533 1534 1535 1536 1537 1538 1538 1538 1539 1539 1539 1539 1539 1539 1539 1539 1539 1539 1539 1539 1539 1539 1539 1539 1540 1540 1539 1540 1541 1541 1541 1541 1540 1540 1540 1540
1520 1522 1524 1525 1527 1528 1530 1531 1532 1534 1535 1535 1536 1536 1537 1538 1538 1538 1538 1538 1538 1538 1538 1538 1538 1538 1537 1537 1538 1538 1538 1538 1538 1538 1538 1539 1539 1539 1539 1539 1539 1539 1539
1517 1519 1521 1523 1525 1526 1528 1529 1531 1532 1533 1534 1534 1535 1536 1536 1536 1537 1537 1537 1537 1537 1537 1537 1537 1537 1537 1537 1536 1536 1537 1537 1537 1537 1537 1537 1537 1537 1537 1537 1537 1537 1537
1514 1516 1518 1521 1522 1524 1526 1528 1529 1530 1531 1532 1532 1533 1534 1535 1535 1535 1535 1535 1535 1535 1535 1535 1535 1535 1535 1535 1535 1535 1535 1535 1535 1535 1535 1535 1535 1535 1535 1535 1535 1535 1535
1511 1513 1516 1518 1520 1522 1524 1525 1526 1527 1528 1529 1530 1531 1532 1533 1533 1534 1534 1533 1533 1534 1534 1534 1534 1534 1534 1534 1534 1534 1534 1533 1533 1533 1533 1532 1532 1533 1533 1533 1532 1532 1532
1508 1511 1513 1516 1518 1519 1521 1522 1524 1525 1526 1527 1528 1529 1530 1531 1532 1532 1532 1532 1532 1532 1532 1532 1532 1532 1532 1532 1532 1531 1531 1531 1531 1531 1531 1530 1530 1530 1530 1530 1529 1529 1529
1505 1508 1511 1513 1515 1517 1518 1519 1521 1522 1523 1524 1525 1526 1527 1528 1529 1529 1530 1529 1529 1529 1530 1529 1530 1530 1530 1530 1530 1529 1529 1529 1529 1529 1529 1528 1528 1528 1527 1527 1527 1526 1526
1502 1505 1508 1510 1512 1514 1515 1517 1518 1519 1520 1522 1523 1524 1524 1526 1527 1527 1527 1527 1527 1527 1527 1527 1527 1527 1527 1527 1527 1527 1526 1526 1526 1526 1526 1525 1525 1525 1524 1524 1523 1523 1522
1499 1502 1505 1507 1509 1511 1513 1515 1516 1517 1518 1520 1520 1521 1522 1523 1524 1524 1524 1524 1524 1524 1524 1524 1524 1524 1524 1524 1524 1523 1523 1523 1523 1522 1522 1522 1521 1521 1520 1520 1519 1519 1518
1498 1500 1502 1505 1507 1509 1511 1512 1514 1515 1516 1517 1518 1519 1519 1521 1521 1522 1522 1522 1522 1521 1521 1521 1521 1521 1521 1521 1520 1520 1520 1520 1520 1519 1519 1518 1518 1517 1517 1516 1515 1515 1514
1496 1498 1500 1502 1504 1506 1508 1509 1511 1512 1513 1514 1515 1516 1517 1518 1518 1518 1518 1519 1518 1518 1518 1518 1518 1518 1518 1517 1517 1517 1517 1517 1516 1515 1515 1514 1514 1514 1513 1513 1512 1511 1510
1494 1496 1498 1500 1501 1503 1505 1506 1507 1509 1510 1511 1511 1512 1513 1514 1515 1515 1515 1515 1515 1515 1515 1514 1514 1514 1514 1514 1513 1513 1513 1512 1512 1511 1511 1510 1510 1510 1509 1508 1508 1507 1506
1491 1493 1495 1497 1499 1500 1502 1504 1505 1506 1507 1507 1508 1509 1510 1511 1511 1512 1512 1511 1511 1511 1511 1511 1511 1510 1510 1510 1510 1509 1508 1508 1507 1507 1506 1506 1506 1505 1505 1504 1503 1502 1501
1488 1491 1493 1495 1497 1498 1500 1501 1502 1504 1505 1505 1506 1507 1507 1507 1508 1509 1508 1508 1508 1508 1508 1507 1507 1507 1506 1506 1505 1505 1504 1503 1503 1502 1502 1501 1501 1500 1500 1499 1498 1497 1496
1487 1489 1491 1493 1494 1496 1497 1498 1500 1502 1503 1503 1504 1504 1504 1505 1505 1505 1505 1505 1505 1505 1504 1504 1504 1503 1503 1502 1501 1500 1500 1499 1498 1498 1497 1497 1496 1495 1495 1495 1494 1493 1492
1485 1487 1489 1490 1492 1493 1495 1496 1498 1499 1500 1500 1501 1501 1502 1502 1502 1502 1502 1502 1502 1501 1501 1500 1500 1500 1499 1498 1498 1497 1496 1495 1495 1494 1493 1492 1492 1491 1490 1490 1489 1488 1487
1484 1485 1486 1488 1490 1492 1493 1494 1495 1496 1497 1497 1498 1498 1499 1499 1499 1499 1499 1499 1498 1498 1497 1497 1496 1496 1495 1494 1494 1492 1492 1491 1490 1490 1489 1488 1487 1487 1486 1485 1484 1483 1482
1483 1483 1485 1487 1489 1490 1491 1492 1493 1494 1494 1495 1495 1495 1496 1496 1496 1496 1495 1495 1494 1494 1494 1493 1493 1493 1492 1491 1490 1489 1488 1487 1486 1485 1485 1484 1483 1482 1481 1480 1479 1479 1477
1482 1483 1484 1485 1486 1488 1489 1490 1491 1491 1491 1492 1492 1493 1493 1493 1493 1493 1492 1492 1491 1491 1490 1490 1489 1489 1488 1487 1486 1485 1484 1483 1482 1481 1480 1480 1478 1477 1476 1476 1475 1474 1473
1480 1481 1483 1484 1484 1485 1486 1487 1488 1489 1489 1489 1490 1490 1490 1490 1490 1490 1490 1489 1489 1488 1487 1487 1486 1485 1484 1483 1482 1481 1480 1478 1477 1476 1476 1475 1474 1473 1472 1471 1471 1470 1469
1478 1479 1480 1481 1482 1483 1484 1485 1486 1486 1487 1487 1487 1487 1487 1487 1487 1487 1486 1486 1486 1485 1484 1483 1483 1481 1481 1480 1478 1477 1475 1474 1473 1472 1471 1470 1470 1469 1468 1467 1466 1465 1464
1475 1477 1478 1479 1480 1481 1482 1483 1483 1484 1484 1484 1484 1484 1484 1484 1483 1483 1483 1483 1483 1482 1481 1480 1479 1478 1477 1476 1475 1473 1471 1470 1469 1467 1466 1465 1465 1464 1463 1462 1462 1461 1460
1473 1474 1476 1477 1478 1479 1479 1480 1481 1481 1481 1481 1481 1481 1481 1481 1480 1480 1480 1480 1479 1478 1477 1476 1475 1474 1473 1471 1470 1468 1467 1466 1464 1463 1462 1461 1460 1459 1458 1458 1457 1456 1455
1470 1471 1473 1474 1475 1476 1477 1477 1477 1478 1478 1478 1478 1478 1478 1477 1477 1477 1477 1476 1475 1474 1473 1472 1470 1469 1467 1466 1465 1464 1463 1461 1460 1458 1457 1456 1455 1454 1454 1453 1452 1451 1451
1467 1469 1470 1471 1472 1473 1474 1474 1474 1474 1475 1475 1475 1475 1474 1474 1473 1473 1472 1472 1470 1469 1468 1467 1465 1464 1462 1461 1460 1458 1457 1456 1455 1454 1453 1452 1451 1450 1449 1448 1448 1447 1446